VIA109 SVMI-SVCL

Flight info

Callsign VIA109
Flight time N/A
Altitude 14000
Route OSMAR2 OSMAR DCT TUY DCT MASPU
Aircraft RJ1H/M-SDFGIRWY/LB1

Departure

Time 2026-04-30 22:36
Airport Maiquetía Simón Bolívar International Airport (SVMI)

Arrival

Time N/A
Airport Calabozo Airport (SVCL)
Time Latitude Longitude Altitude Speed Heading
2026-04-30 22:13 10.60071 -66.99977 241 ft 0 kts 178°
2026-04-30 22:17 10.60072 -66.99977 241 ft 0 kts 178°
2026-04-30 22:30 10.60056 -66.99920 221 ft 6 kts 33°
2026-04-30 22:31 10.60144 -66.99825 214 ft 9 kts 86°
2026-04-30 22:32 10.60122 -66.99720 220 ft 0 kts 214°
2026-04-30 22:32 10.60130 -66.99706 218 ft 7 kts 94°
2026-04-30 22:33 10.59978 -66.99660 223 ft 10 kts 179°
2026-04-30 22:33 10.59896 -66.99619 216 ft 12 kts 95°
2026-04-30 22:34 10.59960 -66.99422 210 ft 61 kts 77°
2026-04-30 22:35 10.60326 -66.97873 377 ft 144 kts 78°
2026-04-30 22:36 10.61830 -66.94463 2008 ft 130 kts 84°
2026-04-30 22:36 10.61993 -66.93567 2074 ft 130 kts 79°
2026-04-30 22:37 10.62804 -66.90405 2758 ft 166 kts 75°
2026-04-30 22:37 10.63125 -66.89263 3221 ft 170 kts 74°
2026-04-30 22:37 10.63862 -66.86732 3772 ft 200 kts 74°
2026-04-30 22:38 10.64706 -66.83901 4421 ft 223 kts 74°
2026-04-30 22:38 10.65675 -66.80679 4824 ft 252 kts 73°
2026-04-30 22:39 10.66197 -66.78955 5041 ft 263 kts 74°
2026-04-30 22:39 10.67874 -66.73511 6242 ft 274 kts 75°
2026-04-30 22:40 10.69577 -66.67938 7499 ft 274 kts 75°
2026-04-30 22:41 10.71066 -66.63000 8580 ft 274 kts 74°
2026-04-30 22:41 10.72198 -66.59283 9342 ft 276 kts 74°
2026-04-30 22:42 10.68107 -66.54346 10615 ft 294 kts 188°
2026-04-30 22:43 10.64499 -66.56592 10710 ft 323 kts 218°
2026-04-30 22:43 10.60978 -66.59667 10777 ft 344 kts 219°
2026-04-30 22:44 10.57328 -66.62925 11106 ft 352 kts 219°
2026-04-30 22:45 10.49645 -66.68804 12047 ft 353 kts 207°
2026-04-30 22:45 10.45301 -66.71185 12517 ft 355 kts 205°
2026-04-30 22:46 10.41011 -66.73453 12998 ft 358 kts 206°
2026-04-30 22:47 10.32182 -66.78236 13847 ft 363 kts 206°
2026-04-30 22:47 10.27995 -66.81125 14019 ft 363 kts 220°
2026-04-30 22:48 10.24408 -66.84716 14018 ft 363 kts 224°
2026-04-30 22:49 10.19217 -66.90356 14020 ft 365 kts 225°
2026-04-30 22:49 10.13966 -66.95963 14005 ft 365 kts 224°
2026-04-30 22:50 10.06917 -67.03404 13993 ft 366 kts 224°
2026-04-30 22:51 10.03424 -67.07111 13999 ft 365 kts 224°
2026-04-30 22:51 10.00130 -67.10598 13988 ft 366 kts 224°
2026-04-30 22:52 9.98451 -67.12378 13984 ft 366 kts 224°
2026-04-30 22:52 9.94500 -67.15493 13999 ft 359 kts 197°
2026-04-30 22:53 9.89697 -67.16864 13993 ft 358 kts 191°
2026-04-30 22:53 9.84907 -67.18021 13990 ft 359 kts 191°
2026-04-30 22:53 9.82508 -67.18602 13989 ft 359 kts 191°
2026-04-30 22:54 9.77650 -67.19834 13976 ft 359 kts 192°
2026-04-30 22:55 9.70388 -67.21733 13962 ft 360 kts 192°
2026-04-30 22:55 9.65569 -67.23005 13961 ft 360 kts 192°
2026-04-30 22:56 9.60786 -67.24274 13956 ft 347 kts 192°
2026-04-30 22:56 9.53787 -67.26150 12856 ft 345 kts 192°
2026-04-30 22:57 9.49170 -67.27372 11971 ft 341 kts 192°
2026-04-30 22:57 9.44688 -67.28548 11189 ft 324 kts 192°
2026-04-30 22:58 9.40417 -67.29660 10473 ft 311 kts 192°
2026-04-30 22:59 9.34303 -67.31298 9404 ft 296 kts 193°
2026-04-30 22:59 9.28431 -67.32843 8324 ft 287 kts 193°